This is the latest recevied weather packets stored in our database for station/object KJ7HSW. If no packets are shown the sender has not sent any weather packets the latest 10 day(s).
| Time | Temp. | Humidity | Pressure | Rain* | Wind** | Luminosity | Snow |
|---|---|---|---|---|---|---|---|
| 1777929769 | 28.33° C | 37% | 1009 hPa | 0 mm | - | 788 W/m² | - |
| 1777929466 | 28.33° C | 34% | 1009.1 hPa | 0 mm | - | 793 W/m² | - |
| 1777929162 | 27.78° C | 35% | 1009.4 hPa | 0 mm | - | 797 W/m² | - |
| 1777928860 | 28.33° C | 33% | 1009.1 hPa | 0 mm | - | 801 W/m² | - |
| 1777928557 | 27.78° C | 33% | 1009.1 hPa | 0 mm | - | 805 W/m² | - |
| 1777928254 | 27.78° C | 34% | 1009.3 hPa | 0 mm | - | 805 W/m² | - |
| 1777927952 | 27.78° C | 30% | 1009.2 hPa | 0 mm | - | 804 W/m² | - |
| 1777927650 | 27.78° C | 31% | 1009.1 hPa | 0 mm | - | 808 W/m² | - |
| 1777927348 | 27.78° C | 36% | 1009.3 hPa | 0 mm | - | 815 W/m² | - |
| 1777927047 | 27.78° C | 31% | 1009.2 hPa | 0 mm | - | 824 W/m² | - |
| 1777926743 | 27.78° C | 31% | 1009.5 hPa | 0 mm | - | 826 W/m² | - |
| 1777926438 | 27.78° C | 32% | 1009.4 hPa | 0 mm | - | 832 W/m² | - |
| 1777926135 | 27.22° C | 31% | 1009.4 hPa | 0 mm | - | 832 W/m² | - |
| 1777925832 | 27.22° C | 31% | 1009.3 hPa | 0 mm | - | 835 W/m² | - |
| 1777925530 | 27.22° C | 33% | 1009.4 hPa | 0 mm | - | 840 W/m² | - |
| 1777925227 | 27.22° C | 32% | 1009.4 hPa | 0 mm | - | 842 W/m² | - |
| 1777924923 | 27.22° C | 31% | 1009.3 hPa | 0 mm | - | 847 W/m² | - |
| 1777924619 | 27.22° C | 32% | 1009.5 hPa | 0 mm | - | 845 W/m² | - |
| 1777924315 | 27.22° C | 31% | 1009.6 hPa | 0 mm | - | 848 W/m² | - |
| 1777924013 | 27.22° C | 30% | 1009.6 hPa | 0 mm | - | 855 W/m² | - |
| 1777923708 | 27.22° C | 31% | 1009.5 hPa | 0 mm | - | 848 W/m² | - |
| 1777923405 | 26.67° C | 34% | 1009.4 hPa | 0 mm | - | 836 W/m² | - |
| 1777923103 | 26.67° C | 31% | 1009.6 hPa | 0 mm | - | 855 W/m² | - |
| 1777922801 | 26.67° C | 32% | 1009.4 hPa | 0 mm | - | 855 W/m² | - |
| 1777922499 | 27.22° C | 32% | 1009.4 hPa | 0 mm | - | 854 W/m² | - |
* Rain latest hour (hover to see other rain measurements)
** Current wind speed in m/s (hover to see current wind gust speed)